This demonstration page uses our WeatherBlox Daily Observations layout. Learn more.

38.80484, -77.04692

Hourly Observations for November 29, 2019

Temp ( °F °C ) Dew Point ( °F °C ) Humidity (%) Winds ( mph kmh ) Pressure ( in mb ) Visibility ( mi km ) Precip ( " mm )
12:52 am 00:52 Cloudy 42 5.6 29 -1.7 60 60 NNW 18 30 30.27 1025 10 16.0934 0 0
1:52 am 01:52 Cloudy 41 5 29 -1.7 62 62 NNW 15 24 30.27 1025 10 16.0934 0 0
3:52 am 03:52 Cloudy 39 3.9 29 -1.7 67 67 NNW 13 20 30.27 1025 10 16.0934 0 0
4:52 am 04:52 Cloudy 39 3.9 29 -1.7 67 67 NNW 12 19 30.28 1025 10 16.0934 0 0
5:52 am 05:52 Cloudy 38 3.3 29 -1.7 70 70 NNW 8 13 30.27 1025 10 16.0934 0 0
6:52 am 06:52 Mostly Cloudy 38 3.3 29 -1.7 70 70 NNW 5 7 30.28 1025 10 16.0934 0 0
7:52 am 07:52 Mostly Cloudy 40 4.4 30 -1.1 68 68 N 13 20 30.29 1026 10 16.0934 0 0
8:52 am 08:52 Mostly Cloudy 42 5.6 29 -1.7 60 60 N 9 15 30.29 1026 10 16.0934 0 0
9:52 am 09:52 Partly Cloudy 44 6.7 28 -2.2 53 53 NNW 12 19 30.29 1026 10 16.0934 0 0
10:52 am 10:52 Mostly Cloudy 48 8.9 28 -2.2 46 46 N 13 20 30.28 1025 10 16.0934 0 0
11:52 am 11:52 Mostly Cloudy 49 9.4 28 -2.2 44 44 NNW 10 17 30.25 1024 10 16.0934 0 0
12:36 pm 12:36 Partly Cloudy 50 10 27 -2.8 41 41 NNW 8 13 30.21 1023 10 16.0934 0 0
12:52 pm 12:52 Partly Cloudy 50 10 28 -2.2 43 43 NNW 9 15 30.22 1023 10 16.0934 0 0
1:52 pm 13:52 Mostly Sunny 52 11.1 27 -2.8 38 38 NNW 10 17 30.18 1022 10 16.0934 0 0
2:52 pm 14:52 Mostly Sunny 52 11.1 26 -3.3 37 37 N 12 19 30.19 1022 10 16.0934 0 0
3:52 pm 15:52 Mostly Cloudy 51 10.6 25 -3.9 36 36 NNW 7 11 30.18 1022 10 16.0934 0 0
4:52 pm 16:52 Mostly Cloudy 50 10 26 -3.3 39 39 NW 10 17 30.19 1022 10 16.0934 0 0
5:52 pm 17:52 Cloudy 48 8.9 26 -3.3 42 42 NW 10 17 30.18 1022 10 16.0934 0 0
6:52 pm 18:52 Mostly Cloudy 46 7.8 26 -3.3 46 46 NNW 7 11 30.18 1022 10 16.0934 0 0
8:52 pm 20:52 Cloudy 45 7.2 27 -2.8 49 49 N 13 20 30.17 1022 10 16.0934 0 0
9:52 pm 21:52 Cloudy 44 6.7 27 -2.8 51 51 N 10 17 30.16 1021 10 16.0934 0 0
10:52 pm 22:52 Cloudy 43 6.1 27 -2.8 53 53 N 7 11 30.16 1021 10 16.0934 0 0
11:52 pm 23:52 Cloudy 43 6.1 26 -3.3 51 51 N 12 19 30.14 1021 10 16.0934 0 0

Powered by AerisWeather